SHU313 LTFM-EFHK

Flight info

Callsign SHU313
Flight time N/A
Altitude 36000
Route IBLAX P727 BGS DCT GONGO DCT SOKRU DCT LARMU DCT KENIN DCT TOXAR/N0446F370 DCT BOKSU DCT GUNTA M857 SOKVA DCT ANAMA DCT KEMET DCT KEXLE DCT BEKNA DCT INTOR
Aircraft A320/M-SDE3FGHIRWY/LB1

Departure

Time 2026-05-06 03:21
Airport İstanbul Airport (LTFM)

Arrival

Time N/A
Airport Helsinki Vantaa Airport (EFHK)
Time Latitude Longitude Altitude Speed Heading
2026-05-06 03:03 41.27541 28.73316 176 ft 0 kts 179°
2026-05-06 03:10 41.27542 28.73316 150 ft 1 kts 179°
2026-05-06 03:10 41.27555 28.73315 177 ft 3 kts 185°
2026-05-06 03:10 41.27573 28.73321 177 ft 3 kts 218°
2026-05-06 03:10 41.27585 28.73339 177 ft 3 kts 252°
2026-05-06 03:11 41.27589 28.73363 177 ft 2 kts 268°
2026-05-06 03:11 41.27589 28.73373 177 ft 0 kts 269°
2026-05-06 03:13 41.27589 28.73354 177 ft 4 kts 269°
2026-05-06 03:13 41.27588 28.73308 177 ft 7 kts 269°
2026-05-06 03:13 41.27588 28.73217 177 ft 12 kts 269°
2026-05-06 03:14 41.27587 28.73119 177 ft 10 kts 269°
2026-05-06 03:14 41.27586 28.73036 177 ft 8 kts 269°
2026-05-06 03:14 41.27596 28.72979 177 ft 6 kts 306°
2026-05-06 03:14 41.27614 28.72960 177 ft 4 kts 329°
2026-05-06 03:15 41.27686 28.72975 177 ft 10 kts 359°
2026-05-06 03:15 41.27730 28.72973 176 ft 9 kts 358°
2026-05-06 03:15 41.27789 28.72971 176 ft 8 kts 358°
2026-05-06 03:15 41.27843 28.72970 176 ft 9 kts
2026-05-06 03:16 41.27925 28.72970 177 ft 14 kts 359°
2026-05-06 03:16 41.28031 28.72966 177 ft 17 kts 358°
2026-05-06 03:16 41.28140 28.72963 176 ft 15 kts 360°
2026-05-06 03:16 41.28239 28.72962 176 ft 15 kts 359°
2026-05-06 03:17 41.28357 28.72962 177 ft 19 kts
2026-05-06 03:17 41.28490 28.72957 176 ft 19 kts 359°
2026-05-06 03:17 41.28623 28.72955 176 ft 19 kts 359°
2026-05-06 03:17 41.28755 28.72952 177 ft 19 kts 359°
2026-05-06 03:18 41.28887 28.72949 176 ft 19 kts 359°
2026-05-06 03:18 41.29020 28.72946 176 ft 19 kts 359°
2026-05-06 03:18 41.29156 28.72945 177 ft 20 kts 360°
2026-05-06 03:18 41.29296 28.72944 176 ft 21 kts 360°
2026-05-06 03:19 41.29443 28.72943 177 ft 22 kts 359°
2026-05-06 03:19 41.29598 28.72941 177 ft 23 kts 359°
2026-05-06 03:19 41.29743 28.72935 176 ft 20 kts 358°
2026-05-06 03:19 41.29861 28.72911 177 ft 15 kts 321°
2026-05-06 03:20 41.29871 28.72648 174 ft 16 kts 270°
2026-05-06 03:20 41.29870 28.72514 175 ft 11 kts 269°
2026-05-06 03:20 41.29823 28.72455 175 ft 11 kts 183°
2026-05-06 03:21 41.29729 28.72456 175 ft 23 kts 180°
2026-05-06 03:21 41.29263 28.72466 178 ft 109 kts 179°
2026-05-06 03:21 41.28270 28.72484 215 ft 171 kts 179°
2026-05-06 03:21 41.27101 28.72522 1092 ft 167 kts 179°
2026-05-06 03:22 41.25921 28.72534 1947 ft 172 kts 181°
2026-05-06 03:22 41.24695 28.72572 2361 ft 188 kts 179°
2026-05-06 03:22 41.23307 28.72639 2633 ft 210 kts 179°
2026-05-06 03:22 41.21774 28.72718 2963 ft 229 kts 179°
2026-05-06 03:23 41.20115 28.72709 3439 ft 245 kts 192°
2026-05-06 03:23 41.18639 28.71656 4138 ft 245 kts 232°
2026-05-06 03:23 41.17952 28.69643 4906 ft 240 kts 266°
2026-05-06 03:23 41.17836 28.67435 5732 ft 240 kts 274°
2026-05-06 03:24 41.17856 28.65206 6563 ft 243 kts 277°
2026-05-06 03:24 41.17904 28.62948 7343 ft 246 kts 277°
2026-05-06 03:24 41.17943 28.60653 8123 ft 251 kts 276°
2026-05-06 03:24 41.18193 28.58381 8883 ft 248 kts 297°
2026-05-06 03:25 41.19141 28.56554 9638 ft 244 kts 322°
2026-05-06 03:25 41.20617 28.55500 10361 ft 243 kts 348°
2026-05-06 03:25 41.22309 28.55323 11071 ft 246 kts 359°
2026-05-06 03:25 41.24032 28.55294 11800 ft 249 kts 359°
2026-05-06 03:26 41.25789 28.55262 12376 ft 260 kts 359°
2026-05-06 03:26 41.27680 28.55225 12596 ft 283 kts 359°
2026-05-06 03:26 41.29732 28.55182 12780 ft 306 kts 359°
2026-05-06 03:26 41.31934 28.55330 12946 ft 327 kts
2026-05-06 03:27 41.34231 28.55683 13450 ft 336 kts
2026-05-06 03:27 41.36568 28.56038 14080 ft 340 kts
2026-05-06 03:27 41.38940 28.56400 14686 ft 344 kts
2026-05-06 03:27 41.41328 28.56762 15288 ft 347 kts
2026-05-06 03:28 41.43742 28.57100 15887 ft 350 kts
2026-05-06 03:28 41.46190 28.57092 16474 ft 354 kts 359°
2026-05-06 03:28 41.48662 28.57036 17048 ft 357 kts 359°
2026-05-06 03:28 41.51170 28.56983 17528 ft 364 kts 359°
2026-05-06 03:29 41.53713 28.56932 18077 ft 367 kts 359°
2026-05-06 03:29 41.56266 28.56883 18697 ft 367 kts 359°
2026-05-06 03:29 41.58828 28.56830 19204 ft 369 kts 359°
2026-05-06 03:29 41.61405 28.56777 19691 ft 372 kts 359°
2026-05-06 03:30 41.64010 28.56722 20168 ft 375 kts 358°
2026-05-06 03:30 41.66627 28.56668 20646 ft 378 kts 358°
2026-05-06 03:30 41.69214 28.56313 21055 ft 382 kts 346°
2026-05-06 03:30 41.71709 28.55042 21457 ft 387 kts 331°
2026-05-06 03:31 41.73888 28.52906 21887 ft 391 kts 317°
2026-05-06 03:31 41.75590 28.50048 22323 ft 397 kts 302°
2026-05-06 03:31 41.76685 28.46636 22767 ft 403 kts 289°
2026-05-06 03:31 41.77618 28.43102 23182 ft 402 kts 299°
2026-05-06 03:32 41.79150 28.39981 23643 ft 400 kts 313°
2026-05-06 03:32 41.81154 28.37416 24027 ft 400 kts 324°
2026-05-06 03:32 41.83501 28.35414 24413 ft 400 kts 334°
2026-05-06 03:32 41.86093 28.34016 24792 ft 402 kts 342°
2026-05-06 03:33 41.88757 28.32828 25173 ft 404 kts 342°
2026-05-06 03:33 41.91436 28.31633 25550 ft 407 kts 342°
2026-05-06 03:33 41.94119 28.30394 25917 ft 409 kts 338°
2026-05-06 03:33 41.96639 28.28680 26226 ft 413 kts 328°
2026-05-06 03:34 41.98937 28.26332 26569 ft 417 kts 318°
2026-05-06 03:34 42.00897 28.23432 26922 ft 422 kts 308°
2026-05-06 03:34 42.02567 28.20167 27276 ft 424 kts 306°
2026-05-06 03:34 42.04229 28.16867 27638 ft 427 kts 306°
2026-05-06 03:35 42.05897 28.13557 27981 ft 429 kts 306°
2026-05-06 03:35 42.07575 28.10229 28323 ft 431 kts 306°
2026-05-06 03:35 42.09263 28.06877 28646 ft 433 kts 306°
2026-05-06 03:35 42.10956 28.03512 28964 ft 435 kts 305°
2026-05-06 03:36 42.12655 28.00134 29340 ft 435 kts 306°
2026-05-06 03:36 42.14353 27.96747 29680 ft 437 kts 306°
2026-05-06 03:36 42.16060 27.93333 29998 ft 439 kts 306°
2026-05-06 03:36 42.17745 27.89956 30340 ft 438 kts 306°
2026-05-06 03:37 42.19441 27.86557 30725 ft 437 kts 306°
2026-05-06 03:37 42.21226 27.83257 31091 ft 434 kts 312°
2026-05-06 03:37 42.23346 27.80389 31453 ft 431 kts 321°
2026-05-06 03:37 42.25771 27.78029 31829 ft 427 kts 330°
2026-05-06 03:38 42.28370 27.76111 32280 ft 424 kts 332°
2026-05-06 03:38 42.30965 27.74225 32644 ft 423 kts 332°
2026-05-06 03:38 42.33552 27.72331 33014 ft 422 kts 332°
2026-05-06 03:38 42.36130 27.70437 33391 ft 421 kts 332°
2026-05-06 03:39 42.38704 27.68543 33769 ft 420 kts 332°
2026-05-06 03:39 42.41232 27.66679 34131 ft 419 kts 332°
2026-05-06 03:39 42.43788 27.64793 34428 ft 418 kts 332°
2026-05-06 03:39 42.46344 27.62910 34706 ft 418 kts 332°
2026-05-06 03:40 42.48896 27.61032 34995 ft 417 kts 332°
2026-05-06 03:40 42.51447 27.59158 35291 ft 417 kts 332°
2026-05-06 03:40 42.54002 27.57282 35517 ft 418 kts 332°
2026-05-06 03:40 42.56560 27.55401 35722 ft 419 kts 332°
2026-05-06 03:41 42.59091 27.53425 35947 ft 420 kts 327°
2026-05-06 03:41 42.61477 27.51125 36044 ft 422 kts 325°
2026-05-06 03:41 42.66237 27.46446 36057 ft 422 kts 325°
2026-05-06 03:42 42.70984 27.41769 36058 ft 420 kts 325°
2026-05-06 03:42 42.75719 27.37103 36062 ft 420 kts 325°
2026-05-06 03:43 42.80454 27.32432 36061 ft 421 kts 325°
2026-05-06 03:43 42.85194 27.27741 36063 ft 421 kts 325°
2026-05-06 03:44 42.89937 27.23039 36058 ft 421 kts 325°
2026-05-06 03:44 42.94675 27.18344 36067 ft 421 kts 325°
2026-05-06 03:45 42.99380 27.13663 36069 ft 421 kts 325°
2026-05-06 03:45 43.04111 27.08947 36071 ft 421 kts 325°
2026-05-06 03:46 43.08834 27.04219 36066 ft 421 kts 325°
2026-05-06 03:46 43.13652 26.99681 36065 ft 420 kts 328°
2026-05-06 03:47 43.18623 26.95487 36067 ft 419 kts 329°
2026-05-06 03:47 43.23605 26.91307 36063 ft 419 kts 329°
2026-05-06 03:48 43.28554 26.87027 36048 ft 419 kts 328°
2026-05-06 03:48 43.33443 26.82749 36056 ft 419 kts 328°
2026-05-06 03:49 43.38372 26.78427 36054 ft 420 kts 328°
2026-05-06 03:49 43.43298 26.74102 36057 ft 420 kts 328°
2026-05-06 03:50 43.48230 26.69778 36050 ft 420 kts 328°
2026-05-06 03:50 43.53156 26.65456 36048 ft 419 kts 328°
2026-05-06 03:51 43.58073 26.61136 36048 ft 419 kts 328°
2026-05-06 03:51 43.62982 26.56808 36042 ft 418 kts 328°
2026-05-06 03:52 43.67852 26.52505 36039 ft 418 kts 328°
2026-05-06 03:52 43.72746 26.48168 36014 ft 417 kts 328°
2026-05-06 03:53 43.77634 26.43823 36021 ft 417 kts 328°
2026-05-06 03:53 43.82516 26.39479 36030 ft 417 kts 328°
2026-05-06 03:54 43.87396 26.35135 36024 ft 417 kts 328°
2026-05-06 03:54 43.92249 26.30806 36019 ft 417 kts 328°
2026-05-06 03:55 43.97131 26.26437 36018 ft 418 kts 328°
2026-05-06 03:55 44.02016 26.22055 36016 ft 418 kts 328°
2026-05-06 03:56 44.06902 26.17668 36019 ft 418 kts 328°
2026-05-06 03:56 44.11796 26.13267 36020 ft 418 kts 328°
2026-05-06 03:57 44.16659 26.08893 36012 ft 418 kts 328°
2026-05-06 03:57 44.21546 26.04479 36016 ft 418 kts 328°
2026-05-06 03:58 44.26426 26.00052 36021 ft 418 kts 328°
2026-05-06 03:58 44.31309 25.95628 36023 ft 418 kts 328°
2026-05-06 03:59 44.36191 25.91197 36030 ft 418 kts 328°
2026-05-06 03:59 44.41072 25.86744 36018 ft 418 kts 328°
2026-05-06 04:00 44.45942 25.82297 36020 ft 418 kts 328°
2026-05-06 04:00 44.50779 25.77878 36038 ft 418 kts 328°
2026-05-06 04:01 44.55652 25.73426 36038 ft 418 kts 328°
2026-05-06 04:01 44.59726 25.69687 36024 ft 418 kts 327°
2026-05-06 04:02 44.64595 25.65200 36034 ft 419 kts 327°
2026-05-06 04:02 44.69441 25.60735 36039 ft 419 kts 327°
2026-05-06 04:03 44.74319 25.56234 36040 ft 419 kts 327°
2026-05-06 04:03 44.79198 25.51723 36047 ft 419 kts 327°
2026-05-06 04:04 44.84078 25.47192 36032 ft 420 kts 327°
2026-05-06 04:04 44.88954 25.42661 36046 ft 420 kts 327°
2026-05-06 04:05 44.93842 25.38109 36046 ft 421 kts 327°
2026-05-06 04:05 44.98738 25.33547 36048 ft 422 kts 327°
2026-05-06 04:06 45.03613 25.29017 36046 ft 422 kts 327°
2026-05-06 04:06 45.08532 25.24472 36044 ft 422 kts 327°
2026-05-06 04:07 45.13447 25.19909 36050 ft 423 kts 327°
2026-05-06 04:07 45.18369 25.15320 36060 ft 423 kts 327°
2026-05-06 04:08 45.23286 25.10725 36059 ft 423 kts 327°
2026-05-06 04:08 45.28177 25.06145 36050 ft 423 kts 327°
2026-05-06 04:09 45.33101 25.01542 36042 ft 424 kts 327°
2026-05-06 04:09 45.38017 24.96913 36043 ft 424 kts 327°
2026-05-06 04:10 45.42943 24.92275 36047 ft 425 kts 327°
2026-05-06 04:10 45.47873 24.87631 36058 ft 425 kts 327°
2026-05-06 04:11 45.52805 24.82980 36041 ft 425 kts 327°
2026-05-06 04:11 45.57742 24.78309 36035 ft 426 kts 327°
2026-05-06 04:12 45.62687 24.73615 36032 ft 427 kts 327°
2026-05-06 04:12 45.67630 24.68908 36030 ft 427 kts 326°
2026-05-06 04:13 45.72546 24.64214 36024 ft 427 kts 326°
2026-05-06 04:13 45.77489 24.59489 36011 ft 427 kts 326°
2026-05-06 04:14 45.82436 24.54749 36016 ft 428 kts 326°
2026-05-06 04:14 45.87397 24.49987 36015 ft 428 kts 326°
2026-05-06 04:15 45.92352 24.45229 36016 ft 428 kts 326°
2026-05-06 04:15 45.97310 24.40451 36012 ft 429 kts 326°
2026-05-06 04:16 46.02241 24.35693 36013 ft 430 kts 326°
2026-05-06 04:16 46.07211 24.30888 36020 ft 430 kts 326°
2026-05-06 04:17 46.12176 24.26063 36019 ft 431 kts 326°
2026-05-06 04:17 46.17153 24.21223 36021 ft 431 kts 326°
2026-05-06 04:18 46.22120 24.16374 36023 ft 431 kts 326°
2026-05-06 04:18 46.27085 24.11521 36015 ft 431 kts 326°
2026-05-06 04:19 46.32014 24.06695 36029 ft 431 kts 326°
2026-05-06 04:19 46.36978 24.01834 36021 ft 431 kts 326°
2026-05-06 04:20 46.41944 23.96961 36010 ft 431 kts 325°
2026-05-06 04:20 46.46904 23.92064 36015 ft 431 kts 325°
2026-05-06 04:21 46.51865 23.87156 36017 ft 431 kts 325°
2026-05-06 04:21 46.56820 23.82247 36026 ft 431 kts 325°
2026-05-06 04:22 46.61783 23.77326 36006 ft 431 kts 325°
2026-05-06 04:23 46.69228 23.69929 36017 ft 432 kts 325°
2026-05-06 04:23 46.74186 23.64985 36020 ft 432 kts 325°
2026-05-06 04:24 46.79149 23.60026 36025 ft 432 kts 325°
2026-05-06 04:24 46.84078 23.55086 36026 ft 432 kts 325°
2026-05-06 04:25 46.89035 23.50102 36017 ft 433 kts 324°
2026-05-06 04:25 46.93997 23.45105 36019 ft 432 kts 325°
2026-05-06 04:26 46.98954 23.40110 36009 ft 432 kts 324°
2026-05-06 04:26 47.03906 23.35097 36008 ft 432 kts 324°
2026-05-06 04:27 47.08853 23.30064 36006 ft 432 kts 324°
2026-05-06 04:27 47.13801 23.25035 36005 ft 432 kts 324°
2026-05-06 04:28 47.18749 23.20006 36008 ft 433 kts 324°
2026-05-06 04:28 47.23672 23.14985 36006 ft 433 kts 324°
2026-05-06 04:29 47.28600 23.09885 36001 ft 433 kts 323°
2026-05-06 04:29 47.33475 23.04683 36000 ft 433 kts 323°
2026-05-06 04:30 47.38343 22.99457 35991 ft 433 kts 323°
2026-05-06 04:30 47.43220 22.94240 35993 ft 433 kts 323°
2026-05-06 04:31 47.48098 22.89021 35986 ft 433 kts 323°
2026-05-06 04:31 47.52987 22.83798 35984 ft 434 kts 323°
2026-05-06 04:32 47.57881 22.78557 35981 ft 434 kts 323°
2026-05-06 04:32 47.62766 22.73299 35984 ft 434 kts 323°
2026-05-06 04:33 47.67609 22.68060 35982 ft 434 kts 322°
2026-05-06 04:33 47.72487 22.62779 35988 ft 434 kts 323°
2026-05-06 04:34 47.77364 22.57499 35981 ft 433 kts 323°
2026-05-06 04:34 47.82235 22.52210 35977 ft 433 kts 322°
2026-05-06 04:35 47.87102 22.46901 35974 ft 433 kts 322°
2026-05-06 04:35 47.91962 22.41596 35969 ft 433 kts 322°
2026-05-06 04:36 47.96819 22.36281 35958 ft 433 kts 322°
2026-05-06 04:36 48.01642 22.30973 35960 ft 433 kts 322°
2026-05-06 04:37 48.06506 22.25627 35954 ft 434 kts 322°
2026-05-06 04:37 48.11365 22.20274 35957 ft 434 kts 322°
2026-05-06 04:38 48.16227 22.14901 35958 ft 434 kts 322°
2026-05-06 04:38 48.21093 22.09524 35959 ft 434 kts 322°
2026-05-06 04:39 48.25951 22.04130 35958 ft 435 kts 322°
2026-05-06 04:39 48.30813 21.98711 35962 ft 435 kts 322°
2026-05-06 04:40 48.36172 21.94645 35942 ft 439 kts 341°
2026-05-06 04:40 48.39169 21.93690 35942 ft 441 kts 352°
2026-05-06 04:40 48.42244 21.93534 35941 ft 444 kts
2026-05-06 04:41 48.48421 21.94332 35939 ft 445 kts
2026-05-06 04:41 48.54597 21.95156 35943 ft 445 kts
2026-05-06 04:42 48.60777 21.95976 35934 ft 446 kts
2026-05-06 04:42 48.66967 21.96804 35934 ft 447 kts
2026-05-06 04:43 48.73165 21.97633 35936 ft 447 kts
2026-05-06 04:43 48.79339 21.98448 35935 ft 448 kts
2026-05-06 04:44 48.85549 21.99275 35932 ft 448 kts
2026-05-06 04:44 48.91761 22.00112 35932 ft 448 kts
2026-05-06 04:45 48.97975 22.00957 35927 ft 448 kts
2026-05-06 04:45 49.04191 22.01799 35926 ft 448 kts
2026-05-06 04:46 49.10407 22.02634 35921 ft 448 kts
2026-05-06 04:46 49.16625 22.03480 35922 ft 449 kts
2026-05-06 04:47 49.22848 22.04332 35919 ft 449 kts
2026-05-06 04:47 49.28025 22.05038 35916 ft 449 kts
2026-05-06 04:48 49.35263 22.06028 35905 ft 449 kts
2026-05-06 04:48 49.40445 22.06737 35900 ft 449 kts
2026-05-06 04:49 49.46677 22.07588 35909 ft 449 kts
2026-05-06 04:49 49.52911 22.08445 35899 ft 449 kts
2026-05-06 04:50 49.59142 22.09311 35894 ft 449 kts
2026-05-06 04:50 49.65376 22.10182 35885 ft 450 kts
2026-05-06 04:51 49.71580 22.11041 35889 ft 450 kts
2026-05-06 04:51 49.77816 22.11902 35884 ft 450 kts
2026-05-06 04:52 49.84051 22.12757 35881 ft 450 kts
2026-05-06 04:52 49.90288 22.13615 35880 ft 450 kts
2026-05-06 04:53 49.96529 22.14497 35875 ft 450 kts
2026-05-06 04:53 50.02762 22.15396 35869 ft 450 kts
2026-05-06 04:54 50.08997 22.16278 35864 ft 450 kts
2026-05-06 04:54 50.15190 22.17153 35869 ft 450 kts
2026-05-06 04:55 50.21426 22.18027 35858 ft 450 kts
2026-05-06 04:55 50.27662 22.18897 35851 ft 450 kts
2026-05-06 04:56 50.33899 22.19790 35853 ft 450 kts
2026-05-06 04:56 50.40140 22.20690 35858 ft 450 kts
2026-05-06 04:57 50.46384 22.21594 35850 ft 450 kts
2026-05-06 04:57 50.52590 22.22483 35841 ft 450 kts
2026-05-06 04:58 50.58833 22.23373 35843 ft 450 kts
2026-05-06 04:58 50.65080 22.24273 35844 ft 451 kts
2026-05-06 04:59 50.71332 22.25181 35842 ft 451 kts
2026-05-06 04:59 50.77582 22.26087 35828 ft 451 kts
2026-05-06 05:00 50.83787 22.26987 35832 ft 451 kts
2026-05-06 05:00 50.90043 22.27894 35837 ft 451 kts
2026-05-06 05:01 50.96301 22.28808 35837 ft 452 kts
2026-05-06 05:01 51.02571 22.29737 35834 ft 452 kts
2026-05-06 05:02 51.08808 22.30655 35840 ft 453 kts
2026-05-06 05:02 51.15084 22.31573 35844 ft 453 kts
2026-05-06 05:03 51.21361 22.32500 35842 ft 453 kts
2026-05-06 05:03 51.27648 22.33435 35840 ft 453 kts
2026-05-06 05:04 51.33919 22.34373 35836 ft 453 kts
2026-05-06 05:04 51.40189 22.35310 35822 ft 452 kts
2026-05-06 05:05 51.46455 22.36252 35823 ft 452 kts
2026-05-06 05:05 51.52725 22.37196 35819 ft 452 kts
2026-05-06 05:06 51.58947 22.38125 35827 ft 452 kts
2026-05-06 05:06 51.65213 22.39070 35814 ft 452 kts
2026-05-06 05:07 51.71488 22.40011 35812 ft 452 kts
2026-05-06 05:07 51.77761 22.40970 35809 ft 452 kts
2026-05-06 05:08 51.84034 22.41922 35824 ft 452 kts
2026-05-06 05:08 51.90266 22.42858 35819 ft 453 kts
2026-05-06 05:09 51.96550 22.43821 35810 ft 453 kts
2026-05-06 05:09 52.02836 22.44788 35807 ft 453 kts
2026-05-06 05:10 52.09121 22.45756 35821 ft 454 kts
2026-05-06 05:10 52.15411 22.46733 35812 ft 454 kts
2026-05-06 05:11 52.21704 22.47710 35805 ft 454 kts
2026-05-06 05:11 52.27993 22.48684 35803 ft 454 kts
2026-05-06 05:12 52.34248 22.49651 35812 ft 454 kts
2026-05-06 05:12 52.40553 22.50625 35805 ft 455 kts